GW7647 Weather Reports


time (UTC)temp
C
wind
direction
speed
KPH
gust
KPH
rain 1hr
cm
rain 24hr
cm
rain mn
cm
humidity
%
barometer
mb
20260906095535 22 261 3.2 8.0 0.00 0.00 0.00 95 1017.4
20260906094543 23 250 3.2 6.4 0.00 0.00 0.00 95 1017.2
20260906093529 23 153 3.2 4.8 0.00 0.00 0.00 95 1017.2
20260906092535 23 338 1.6 4.8 0.00 0.00 0.00 96 1017.0
20260906091523 23 206 1.6 3.2 0.00 0.00 0.00 96 1017.0
20260906090528 23 293 3.2 6.4 0.00 0.00 0.00 96 1016.9
20260906085535 23 297 1.6 4.8 0.00 0.00 0.00 96 1016.8
20260906084523 23 306 3.2 6.4 0.00 0.00 0.00 97 1016.7
20260906083529 23 300 1.6 3.2 0.00 0.00 0.00 97 1016.8
20260906082535 23 252 3.2 4.8 0.00 0.00 0.00 97 1016.6
20260906081522 23 341 3.2 6.4 0.00 0.00 0.00 97 1016.6
20260906080528 23 338 1.6 4.8 0.00 0.00 0.00 97 1016.6
20260906075534 23 295 1.6 4.8 0.00 0.00 0.00 97 1016.7
20260906074522 23 326 1.6 4.8 0.00 0.00 0.00 97 1016.7
20260906073529 23 27 1.6 6.4 0.00 0.00 0.00 97 1016.7
20260906072534 23 346 1.6 4.8 0.00 0.00 0.00 97 1016.7
20260906071522 23 67 1.6 4.8 0.00 0.00 0.00 97 1016.9
20260906070549 23 342 0.0 3.2 0.00 0.00 0.00 97 1016.9
20260906065535 23 134 0.0 4.8 0.00 0.00 0.00 97 1016.8
20260906064523 23 259 0.0 4.8 0.00 0.00 0.00 97 1016.8
20260906063549 23 293 0.0 3.2 0.00 0.00 0.00 96 1016.9
20260906062535 23 4 0.0 3.2 0.00 0.00 0.00 96 1016.9
20260906061523 23 45 0.0 3.2 0.00 0.00 0.00 95 1017.0
20260906060529 23 261 0.0 3.2 0.00 0.00 0.00 95 1017.0
20260906055615 23 270 0.0 3.2 0.00 0.00 0.00 94 1016.8
20260906054523 24 175 1.6 3.2 0.00 0.00 0.00 94 1016.8
20260906053529 24 45 0.0 3.2 0.00 0.00 0.00 93 1016.8
20260906052535 25 195 0.0 3.2 0.00 0.00 0.00 93 1016.9
20260906051523 25 236 1.6 3.2 0.00 0.00 0.00 93 1016.8
20260906050528 25 246 0.0 3.2 0.00 0.00 0.00 92 1016.7
20260906045534 25 338 0.0 3.2 0.00 0.00 0.00 92 1016.6
20260906044523 25 272 0.0 3.2 0.00 0.00 0.00 91 1016.5
20260906043529 25 244 1.6 4.8 0.00 0.00 0.00 91 1016.4
20260906042535 25 270 0.0 1.6 0.00 0.00 0.00 90 1016.2
20260906041523 25 298 1.6 3.2 0.00 0.00 0.00 89 1016.2
20260906040529 26 197 1.6 8.0 0.00 0.00 0.00 89 1016.2
20260906035555 26 90 0.0 3.2 0.00 0.00 0.00 87 1016.1
20260906034523 26 267 3.2 4.8 0.00 0.00 0.00 87 1016.2
20260906033529 26 120 1.6 6.4 0.00 0.00 0.00 87 1016.2
20260906032535 27 253 1.6 4.8 0.00 0.00 0.00 87 1016.2
20260906031523 27 239 1.6 4.8 0.00 0.00 0.00 86 1016.1
20260906030549 27 272 3.2 4.8 0.00 0.00 0.00 86 1016.0
20260906025535 27 263 3.2 6.4 0.00 0.00 0.00 86 1015.9
20260906024523 27 0.0 0.0 0.00 0.00 0.00 85 1015.9
20260906023529 27 252 1.6 6.4 0.00 0.00 0.00 85 1015.7
20260906022555 28 261 1.6 4.8 0.00 0.00 0.00 84 1015.6
20260906021523 28 27 3.2 4.8 0.00 0.00 0.00 84 1015.5
20260906020549 28 275 4.8 6.4 0.00 0.00 0.00 83 1015.6
20260906015535 28 166 3.2 6.4 0.00 0.00 0.00 83 1015.6
20260906014523 29 277 3.2 6.4 0.00 0.00 0.00 82 1015.3
20260906013529 29 205 3.2 6.4 0.00 0.00 0.00 82 1015.0
20260906012535 30 292 1.6 6.4 0.00 0.00 0.00 81 1014.8
20260906011523 30 0.0 0.0 0.00 0.00 0.00 81 1014.7
20260906010529 30 256 1.6 3.2 0.00 0.00 0.00 80 1014.6
20260906005535 30 293 0.0 3.2 0.00 0.00 0.00 79 1014.5
20260906004543 30 259 3.2 3.2 0.00 0.00 0.00 77 1014.4
20260906003529 31 281 0.0 3.2 0.00 0.00 0.00 76 1014.4
20260906002615 31 270 0.0 1.6 0.00 0.00 0.00 74 1014.5
20260906001523 31 279 1.6 4.8 0.00 0.00 0.00 74 1014.6
20260906000529 32 0.0 0.0 0.00 0.00 0.00 72 1014.7
20260905235535 32 238 1.6 3.2 0.00 0.00 0.00 70 1014.8
20260905234523 32 313 1.6 4.8 0.00 0.00 0.00 70 1014.7
20260905233529 33 203 0.0 1.6 0.00 0.00 0.00 68 1014.7
20260905232615 33 257 3.2 6.4 0.00 0.00 0.00 67 1014.7
20260905231523 33 245 3.2 4.8 0.00 0.00 0.00 66 1014.6
20260905230529 34 266 3.2 4.8 0.00 0.00 0.00 64 1014.5
20260905225535 35 242 3.2 6.4 0.00 0.00 0.00 63 1014.4
20260905224523 34 257 4.8 8.0 0.00 0.00 0.00 63 1014.4
20260905223529 34 257 4.8 8.0 0.00 0.00 0.00 64 1014.4
20260905222535 35 232 4.8 8.0 0.00 0.00 0.00 63 1014.4
20260905221523 35 265 4.8 8.0 0.00 0.00 0.00 63 1014.3
20260905220529 35 261 1.6 4.8 0.00 0.00 0.00 62 1014.1
20260905215535 35 260 3.2 4.8 0.00 0.00 0.00 61 1014.2
20260905214523 35 265 4.8 11.3 0.00 0.00 0.00 60 1014.5
20260905213528 35 267 3.2 6.4 0.00 0.00 0.00 61 1014.4
20260905212535 35 294 4.8 9.7 0.00 0.00 0.00 60 1014.3
20260905211523 35 242 4.8 6.4 0.00 0.00 0.00 60 1014.4
20260905210528 36 208 4.8 8.0 0.00 0.00 0.00 59 1014.5
20260905205535 36 284 4.8 9.7 0.00 0.00 0.00 59 1014.7
20260905204542 35 230 6.4 12.9 0.00 0.00 0.00 59 1014.8
20260905203528 35 256 6.4 8.0 0.00 0.00 0.00 58 1015.0
20260905202534 36 279 4.8 8.0 0.00 0.00 0.00 60 1015.1
20260905201602 36 262 4.8 8.0 0.00 0.00 0.00 58 1015.3
20260905200528 35 245 4.8 6.4 0.00 0.00 0.00 59 1015.2
20260905195534 36 284 4.8 4.8 0.00 0.00 0.00 59 1015.2
20260905194522 36 274 4.8 6.4 0.00 0.00 0.00 58 1015.2
20260905193608 36 221 6.4 9.7 0.00 0.00 0.00 59 1015.4
20260905192554 35 232 4.8 9.7 0.00 0.00 0.00 58 1015.4
20260905191522 36 283 3.2 6.4 0.00 0.00 0.00 58 1015.5
20260905190528 35 166 3.2 8.0 0.00 0.00 0.00 59 1015.8
20260905185533 36 345 4.8 8.0 0.00 0.00 0.00 58 1016.0
20260905184522 35 223 3.2 4.8 0.00 0.00 0.00 61 1016.1
20260905183528 35 162 3.2 6.4 0.00 0.00 0.00 60 1016.3
20260905182534 35 90 3.2 4.8 0.00 0.00 0.00 60 1016.4
20260905181522 35 270 4.8 6.4 0.00 0.00 0.00 60 1016.4
20260905180528 35 145 3.2 6.4 0.00 0.00 0.00 60 1016.5
20260905175534 35 36 4.8 6.4 0.00 0.00 0.00 59 1016.5
20260905174521 34 210 3.2 4.8 0.00 0.00 0.00 61 1016.6
20260905173528 33 210 3.2 4.8 0.00 0.00 0.00 62 1016.7
20260905172533 33 227 4.8 4.8 0.00 0.00 0.00 61 1016.8
20260905171541 33 193 3.2 4.8 0.00 0.00 0.00 61 1016.9
20260905170527 33 154 3.2 6.4 0.00 0.00 0.00 62 1017.2
20260905165613 33 208 3.2 6.4 0.00 0.00 0.00 62 1017.3
20260905164521 32 113 4.8 6.4 0.00 0.00 0.00 62 1017.6
20260905163527 32 126 3.2 6.4 0.00 0.00 0.00 62 1017.5
20260905162613 32 80 4.8 9.7 0.00 0.00 0.00 62 1017.4
20260905161520 31 93 6.4 8.0 0.00 0.00 0.00 63 1017.5
20260905160526 32 172 3.2 4.8 0.00 0.00 0.00 63 1017.4
20260905155532 31 102 4.8 6.4 0.00 0.00 0.00 63 1017.6
20260905154520 30 164 4.8 6.4 0.00 0.00 0.00 65 1018.0
20260905153526 31 107 4.8 6.4 0.00 0.00 0.00 65 1018.0
20260905152532 30 79 6.4 8.0 0.00 0.00 0.00 66 1017.8
20260905151521 30 103 4.8 8.0 0.00 0.00 0.00 68 1017.8
20260905150527 29 74 6.4 9.7 0.00 0.00 0.00 69 1017.8
20260905145612 29 182 4.8 8.0 0.00 0.00 0.00 70 1017.9
20260905144520 29 145 4.8 9.7 0.00 0.00 0.00 70 1017.9
20260905143526 29 165 3.2 4.8 0.00 0.00 0.00 71 1018.2
20260905142532 30 84 8.0 9.7 0.00 0.00 0.00 67 1018.3
20260905141520 29 87 4.8 9.7 0.00 0.00 0.00 69 1018.2
20260905140526 30 87 6.4 9.7 0.00 0.00 0.00 69 1018.1
20260905135531 28 57 4.8 9.7 0.00 0.00 0.00 72 1018.2
20260905134519 28 154 6.4 9.7 0.00 0.00 0.00 73 1018.4
20260905133525 28 113 8.0 12.9 0.00 0.00 0.00 75 1018.4
20260905132531 27 162 6.4 11.3 0.00 0.00 0.00 77 1018.4
20260905131519 27 78 6.4 12.9 0.00 0.00 0.00 81 1018.5
20260905130525 26 106 3.2 4.8 0.00 0.00 0.00 87 1018.4
20260905125530 26 153 4.8 9.7 0.00 0.00 0.00 87 1018.4
20260905124536 26 154 4.8 12.9 0.00 0.00 0.00 90 1018.1
20260905123545 25 99 6.4 14.5 0.00 0.00 0.00 93 1018.0
20260905122530 25 105 4.8 9.7 0.00 0.00 0.00 95 1017.9
20260905121536 23 0.0 0.0 0.00 0.00 0.00 98 1017.2
20260905120525 23 0.0 0.0 0.00 0.00 0.00 98 1017.2
20260905115550 23 0.0 0.0 0.00 0.00 0.00 98 1017.0
20260905114537 23 0.0 0.0 0.00 0.00 0.00 98 1016.9
20260905113524 23 0.0 0.0 0.00 0.00 0.00 98 1016.8
20260905112531 23 0.0 0.0 0.00 0.00 0.00 98 1016.8
20260905111537 23 0.0 0.0 0.00 0.00 0.00 98 1016.6
20260905110524 23 0.0 0.0 0.00 0.00 0.00 98 1016.5
20260905105530 23 0.0 0.0 0.00 0.00 0.00 98 1016.5
20260905104519 23 0.0 0.0 0.00 0.00 0.00 98 1016.5
20260905103524 23 0.0 0.0 0.00 0.00 0.00 98 1016.7
20260905102530 23 0.0 0.0 0.00 0.00 0.00 98 1016.8
20260905101519 24 0.0 0.0 0.00 0.00 0.00 97 1016.8
20260905100525 24 0.0 0.0 0.00 0.00 0.00 97 1016.7